Regional Weather Roundup
Issued by NWS Charleston, SC

Current Version | Previous Version | Graphics & Text | Print | Product List | Glossary On
Versions: 1 2 3 4 5 6 7 8 9 10 11 12 13 14 15 16 17 18 19 20 21 22 23 24 25 26 27 28 29 30 31 32 33 34 35 36 37 38 39 40 41 42 43 44 45 46 47 48 49 50
000
ASUS42 KCHS 290025
RWRCHS

REGIONAL WEATHER ROUNDUP
NATIONAL WEATHER SERVICE CHARLESTON SC
800 PM EDT THU AUG 28 2014

NOTE: "FAIR" INDICATES FEW OR NO CLOUDS BELOW 12,000 FEET WITH NO
SIGNIFICANT WEATHER AND/OR OBSTRUCTIONS TO VISIBILITY.

NOT ALL STATIONS ARE QUALITY CONTROLLED BY THE NATIONAL
WEATHER SERVICE. USE DATA WITH CAUTION...ESPECIALLY
DEWPOINT OBSERVATIONS.

SCZ027-030-031-034>040-042>050-290100-
...SOUTH CAROLINA...

CITY           SKY/WX    TMP DP  RH WIND       PRES   REMARKS
N CHARLESTON   PTCLDY    80  66  62 S6        30.00R
6HR MIN TEMP:  80; 6HR MAX TEMP:  92;

WATERFRONT PRK   N/A     82 N/A N/A S7          N/A
FORT JOHNSON   NOT AVBL
MOUNT PLEASANT FAIR      77  70  78 CALM      30.00R
JOHNS ISLAND   CLEAR     79  70  73 CALM      30.00R
PINOPOLIS        N/A     91  66  43 S5        29.89F HX  94
MONCKS CORNER    N/A     81  70  69 S3        30.00R
SUMMERVILLE    NOT AVBL
BEAUFORT MCAS  CLEAR     80  66  62 SW3       29.99S
6HR MIN TEMP:  80; 6HR MAX TEMP:  92;

BEAUFORT ARPT  FAIR      77  70  78 CALM      29.99S
HILTON HEAD IS CLEAR     75  72  88 CALM      30.01R
GEORGETOWN     NOT AVBL
WALTERBORO     CLEAR     81  59  47 SE3       30.00R
ORANGEBURG     CLEAR     83  62  49 VRB3      29.98R
6HR MIN TEMP:  83; 6HR MAX TEMP:  94;

BARNWELL       FAIR      82  55  39 SW3       29.98R
AIKEN          FAIR      82  55  39 S5        30.02R
MANNING        FAIR      79  68  69 CALM      29.99R
KINGSTREE      NOT AVBL
COLUMBIA       PTCLDY    88  61  40 SE7       29.96R
6HR MIN TEMP:  88; 6HR MAX TEMP:  97;

SUMTER         CLEAR     87  59  39 SE5       29.97R
6HR MIN TEMP:  87; 6HR MAX TEMP:  96;

FLORENCE       CLEAR     85  65  51 S5        29.97R
6HR MIN TEMP:  85; 6HR MAX TEMP:  95;

MYRTLE BEACH   CLEAR     82  66  57 S12       29.99S
N MYRTLE BEACH CLEAR     82  69  64 SW9       29.99S
6HR MIN TEMP:  82; 6HR MAX TEMP:  88;


$$

GAZ063-065-086>088-099>101-113>116-118-119-134-136>141-150-290100-
...GEORGIA...

CITY           SKY/WX    TMP DP  RH WIND       PRES   REMARKS
SAVANNAH ARPT  PTCLDY    81  65  58 S8        29.99S
6HR MIN TEMP:  81; 6HR MAX TEMP:  92;

HUNTER AAF     CLEAR     80  69  69 SE3       29.97S
6HR MIN TEMP:  80; 6HR MAX TEMP:  89;

FORT STEWART   CLEAR     82  66  57 SE6       29.97S
6HR MIN TEMP:  82; 6HR MAX TEMP:  92;

STATESBORO     NOT AVBL
SYLVANIA       CLEAR     81  67  63 SE3       29.99R
CLAXTON        NOT AVBL
THOMSON        CLEAR     82  67  61 CALM      30.02R
AUGUSTA-BUSH   CLEAR     77  63  61 SE3       29.96S
6HR MIN TEMP:  77; 6HR MAX TEMP:  95;

AUGUSTA-DANIEL CLEAR     89  52  28 S5        29.98S
SWAINSBORO     FAIR      88  63  42 E5        29.98R
VIDALIA          N/A     82  61  47 SE3       29.97S
ALMA           CLEAR     79  65  62 CALM      29.96F
6HR MIN TEMP:  79; 6HR MAX TEMP:  93;

WAYCROSS       CLEAR     85  67  56 SE10      29.97R
JESUP            N/A     82  72  69 SE3       29.99R
BRUNSWICK      CLEAR     81  70  69 SE3       30.00R
SAINT SIMONS   PTCLDY    80  70  71 E6        29.99S
6HR MIN TEMP:  80; 6HR MAX TEMP:  85;


$$

SCZ027-028-034-036>038-045-046-048>050-GAZ119-141-290100-
...LAKE AND SUPPLEMENTAL COASTAL OBSERVATIONS...

STATION/POSITION TIME  TEMP    WIND        PRES    WAVE   SWELL
                       AIR SEA DIR/SP/G            HT/PER HT/PER/DIR
                 (UTC) (F)     (DEG/KT/KT) (MB)    (FT/S) (FT/S/D)
UPR LAKE MARION  NOT AVBL
WINYAH BAY       0000   81     190/  5     1015.0S
LAKE MURRAY      2300   89     210/  4/  5 1013.9R
ACE BASIN NERRS  0000   81        CALM     1016.0R
FORT PULASKI     0000   80     140/  3/  4 1015.8R
SAPELO ISLAND    0000   80     110/  2     1016.0S

$$

ANZ835-935-AMZ111-154-330-350-352-354-374-450-454-472-290100-
...C-MAN AND BUOY OBSERVATIONS...

STATION/POSITION TIME  TEMP    WIND        PRES    WAVE   SWELL
                       AIR SEA DIR/SP/G            HT/PER HT/PER/DIR
                 (UTC) (F)     (DEG/KT/KT) (MB)    (FT/S) (FT/S/D)
FOLLY BEACH CMAN 0000   81     200/  9/ 11 1016.2R
BUOY 41004       0000   81 83  200/  6/  8 1015.8R   4/10   3/10
BUOY 41008       0000   82 85  110/  8/ 10 1015.3F   3/ 9   3/ 80/ 9
5E ST. MARYS GA  0000      85                N/A     3/ 8
FRYING PAN BUOY  NOT AVBL
BUOY 41025       0000   81     230/ 10/ 12 1015.1R   5/ 9   5/130/ 9
CAPE LOOKOUT NC  0000   80     230/  6/  8 1015.3R
BUOY 41002       NOT AVBL
BUOY 41010       0000   83 84   80/  6/  8 1015.8R   5/ 9   5/ 40/ 9
BUOY 41012       NOT AVBL
ST AUGUSTINE FL  0000   82     100/  8/  9 1016.5R
CAPERS NEARSHORE 2300   82     200/ 12/ 14   N/A
FRIPP NEARSHORE  NOT AVBL


$$


USA.gov is the U.S. government's official web portal to all federal, state and local government web resources and services.